Tracking 29892 objects as of 21-Nov-2024
HD Live streaming from Space Station
objects crossing your sky now

STARLINK-31126

Track STARLINK-31126 now!
10-day predictions
STARLINK-31126 is classified as:


NORAD ID: 58675
Int'l Code: 2023-211J
Perigee: 493.9 km
Apogee: 496.6 km
Inclination: 43.0 °
Period: 94.4 minutes
Semi major axis: 6866 km
RCS: Unknown
Launch date: December 29, 2023
Source: United States (US)
Launch site: AIR FORCE EASTERN TEST RANGE (AFETR)
Your satellite tracking list
Your tracking list is empty




NASA's NSSDC Master Catalog

Two Line Element Set (TLE):
1 58675U 23211J   24325.89782339 -.00004207  00000-0 -15109-3 0  9999
2 58675  43.0006 238.4813 0001960 243.8896 116.1753 15.25904754 50035
Source of the keplerian elements: AFSPC